Location: *
(47.6569°N, 7.4256°E)
Time: 06:47:54
(UTC+00:00)

USA 116 - Pass Details

Date: 14 December 2019
Orbit: 405 x 834 km, 97.9° (Epoch: 18 November)

Event Time Altitude Azimuth Distance (km) Brightness Sun altitude
Exits shadow 18:17:14 39° 5° (N) 1,164 5.2 -25.6°
Maximum altitude 18:19:14 78° 287° (WNW) 789 4.4 -25.9°
Drops below altitude 10° 18:24:09 10° 201° (SSW) 2,208 7.1 -26.7°
Sets 18:26:19 0° 200° (SSW) 3,072 7.8 -27.1°
